This is the latest recevied weather packets stored in our database for station/object YM7KGL-1. If no packets are shown the sender has not sent any weather packets the latest 10 day(s).
| Time | Temp. | Humidity | Pressure | Rain* | Wind** | Luminosity | Snow |
|---|---|---|---|---|---|---|---|
| 1777498451 | 12.22° C | 51% | 1019.3 hPa | - | - | - | - |
| 1777497551 | 12.22° C | 51% | 1019.4 hPa | - | - | - | - |
| 1777496650 | 12.22° C | 50% | 1019.4 hPa | - | - | - | - |
| 1777490673 | 13.33° C | 50% | 1019.2 hPa | - | - | - | - |
| 1777486708 | 13.89° C | 50% | 1019.3 hPa | - | - | - | - |
| 1777485808 | 13.89° C | 50% | 1019.3 hPa | - | - | - | - |
| 1777484673 | 14.44° C | 50% | 1019.3 hPa | - | - | - | - |
| 1777483772 | 14.44° C | 50% | 1019 hPa | - | - | - | - |
| 1777477018 | 15.56° C | 49% | 1018.8 hPa | - | - | - | - |
| 1777476117 | 15.56° C | 49% | 1018.8 hPa | - | - | - | - |
| 1777474317 | 15.56° C | 49% | 1019.2 hPa | - | - | - | - |
| 1777473416 | 16.11° C | 49% | 1019 hPa | - | - | - | - |
| 1777473278 | 16.11° C | 49% | 1019 hPa | - | - | - | - |
| 1777469612 | 16.67° C | 49% | 1018.8 hPa | - | - | - | - |
| 1777468712 | 16.67° C | 49% | 1019 hPa | - | - | - | - |
| 1777467811 | 16.67° C | 48% | 1018.6 hPa | - | - | - | - |
| 1777466911 | 17.22° C | 49% | 1018.5 hPa | - | - | - | - |
| 1777466010 | 17.22° C | 49% | 1018.6 hPa | - | - | - | - |
| 1777465190 | 17.78° C | 48% | 1018.4 hPa | - | - | - | - |
| 1777462489 | 18.33° C | 48% | 1018.3 hPa | - | - | - | - |
| 1777461788 | 18.33° C | 48% | 1018.3 hPa | - | - | - | - |
| 1777460888 | 18.33° C | 48% | 1018.4 hPa | - | - | - | - |
| 1777459988 | 18.33° C | 48% | 1018.3 hPa | - | - | - | - |
| 1777459088 | 18.33° C | 48% | 1018.4 hPa | - | - | - | - |
| 1777458519 | 17.78° C | 49% | 1018.3 hPa | - | - | - | - |
* Rain since midnight (hover to see other rain measurements)
** Current wind speed in m/s (hover to see current wind gust speed)